COSMOS 2236 (GLONASS)

Satellite information

Favourite Embed

Satellite Type and Status

PAYLOADIN ORBIT

Key statistics

Satellite COSMOS 2236 (GLONASS) at a glance.

Uptime

11890

Days in orbit

Revolutions

≈ 2.1

Per day

Orbit

MEO

Medium Earth Orbit

Inclination

64.7

Latest

Satellite identification and parameters

Extended collection of information and parameters for COSMOS 2236 (GLONASS).

Object identification

Identified? True

Debris? False

Object name: COSMOS 2236 (GLONASS)

International designator: 1993-010B

Object number (NORAD): 22513

Object ID (CCSDS): 22513

Country: COMMONWEALTH OF INDEPENDENT STATES (CIS)

Current information (Y/N): Y

RCS size: LARGE

Orbital parameters

Period: 675.724 minutes

Inclination: 64.7248 deg

SMA: 25507.814 km

Apoapsis: 19142.563 km

Periapsis: 19116.794 km

RAAN: 79.8347 deg

Eccentricy: 0.00050512

Argument of periapsis: 75.8867 deg

Mean anomaly: 101.3411 deg

Mean motion: 2.1310464 rev/day

Mean motion (dot): 0.00000043 rev/day2

B* drag term: 0.0 1/REarth

Two-line elements (TLE)

Creation date: Sept. 3, 2025, 2:21 a.m.

Reference frame: TEME

Reference center: EARTH

Epoch: Sept. 2, 2025, 8:59 p.m. UTC

TLE line 0: 0 COSMOS 2236 (GLONASS)

TLE line 1: 1 22513U 93010B 25245.87447738 .00000043 00000-0 00000-0 0 9999

TLE line 2: 2 22513 64.7248 79.8347 0005051 75.8867 101.3411 2.13104640253255

Live tracking on map

Real-time ground track for satellite COSMOS 2236 (GLONASS).

In-orbit conjunctions

A list of the most updated potential collisions computed for object COSMOS 2236 (GLONASS).

Target Orbit TCA Probability of collision Miss distance Type
SL-12 R/B(2) MEO 2025-05-23 21:18:08 TBA 1212.0 (m) ROCKET BODY

Associated space launch

GLONASS navigation satellites

COSMOS 2236 (GLONASS) was lifted into orbit during the mission ‘Proton | Uragan 51 to 53’, on board a Proton space rocket.

The launch took place on Feb. 17, 1993, 8:09 p.m. from 81/23 (81L).

For more information about the launch, click the button.

Launch to space Proton | Uragan 51 to 53
Proton | Uragan 51 to 53

Agency: N/A

Status: Launch Successful

Launch date: Feb. 17, 1993, 8:09 p.m. UTC

Rocket: Proton

Launch pad: 81/23 (81L)

Location: Baikonur Cosmodrome, Republic of Kazakhstan

...

Latest news about this satellite

There are no fresh news available about this satellite. Check back as we update our databases every day.


Newsletter sign-up

Weekly statistics, charts and insights to help you stay on top of the space industry.